When you browse on this site, cookies collect data to enhance your experience and personalize the content and advertising you see.
Visit our Privacy Policy to learn more. By continuing to use the site, you agree to this use of cookies and data.
  • In Schweiz
  • Länderverzeichnis
  • Für 7 Tage
  • Wassertemperatur
  • Wetterkarte
  • Widgets
  • user-avatar
    Anmelden

    Stündliche Wetter Cordoba

    Heute, 14 November, Donnerstag

    Zeit Temperatur Niederschläge Wind Luftdruck Luftfeuchtigkeit
    00:00 +25°C° 0 mm 2 m/S 722 mmHg 53%
    01:00 +25°C° 0 mm 2 m/S 722 mmHg 53%
    02:00 +25°C° 0 mm 2 m/S 722 mmHg 54%
    03:00 +24°C° 0 mm 2 m/S 722 mmHg 55%
    04:00 +24°C° 0 mm 1 m/S 722 mmHg 57%
    05:00 +24°C° 0 mm 1 m/S 722 mmHg 58%
    06:00 +25°C° 0 mm 2 m/S 723 mmHg 53%
    07:00 +26°C° 0 mm 2 m/S 724 mmHg 49%
    08:00 +28°C° 0 mm 3 m/S 724 mmHg 44%
    09:00 +29°C° 0 mm 2 m/S 724 mmHg 41%
    10:00 +31°C° 0 mm 2 m/S 724 mmHg 37%
    11:00 +32°C° 0 mm 2 m/S 724 mmHg 34%
    12:00 +33°C° 0 mm 1 m/S 724 mmHg 32%
    13:00 +34°C° 0 mm 1 m/S 723 mmHg 31%
    14:00 +35°C° 0 mm 1 m/S 723 mmHg 29%
    15:00 +35°C° 0 mm 2 m/S 722 mmHg 31%
    16:00 +35°C° 0 mm 2 m/S 722 mmHg 32%
    17:00 +34°C° 0 mm 2 m/S 721 mmHg 33%
    18:00 +32°C° 0 mm 2 m/S 722 mmHg 37%
    19:00 +30°C° 0 mm 2 m/S 722 mmHg 40%
    20:00 +29°C° 0 mm 1 m/S 722 mmHg 43%
    21:00 +28°C° 0 mm 1 m/S 722 mmHg 45%
    22:00 +28°C° 0 mm 1 m/S 723 mmHg 46%
    23:00 +27°C° 0 mm 1 m/S 723 mmHg 48%

    Morgen, 15 November, Freitag

    Zeit Temperatur Niederschläge Wind Luftdruck Luftfeuchtigkeit
    00:00 +27°C° 0 mm 1 m/S 722 mmHg 49%
    01:00 +26°C° 0 mm 1 m/S 722 mmHg 50%
    02:00 +26°C° 0 mm 1 m/S 722 mmHg 52%
    03:00 +25°C° 0 mm 1 m/S 722 mmHg 53%
    04:00 +24°C° 0 mm 1 m/S 722 mmHg 55%
    05:00 +24°C° 0 mm 1 m/S 722 mmHg 56%
    06:00 +26°C° 0 mm 2 m/S 722 mmHg 52%
    07:00 +27°C° 0 mm 2 m/S 723 mmHg 48%
    08:00 +29°C° 0 mm 3 m/S 723 mmHg 44%
    09:00 +32°C° 0 mm 4 m/S 723 mmHg 39%
    10:00 +34°C° 0 mm 4 m/S 723 mmHg 34%
    11:00 +36°C° 0 mm 5 m/S 723 mmHg 29%
    12:00 +37°C° 0 mm 5 m/S 722 mmHg 29%
    13:00 +38°C° 0 mm 6 m/S 722 mmHg 28%
    14:00 +39°C° 0 mm 6 m/S 721 mmHg 28%
    15:00 +38°C° 0 mm 6 m/S 720 mmHg 29%
    16:00 +36°C° 0 mm 6 m/S 720 mmHg 31%
    17:00 +36°C° 0 mm 6 m/S 719 mmHg 32%
    18:00 +34°C° 0 mm 5 m/S 720 mmHg 37%
    19:00 +33°C° 0 mm 5 m/S 720 mmHg 41%
    20:00 +30°C° 0 mm 4 m/S 720 mmHg 45%
    21:00 +29°C° 0 mm 4 m/S 720 mmHg 47%
    22:00 +29°C° 0 mm 4 m/S 721 mmHg 49%
    23:00 +28°C° 0 mm 4 m/S 721 mmHg 51%

    übermorgen, 16 November, Samstag

    Zeit Temperatur Niederschläge Wind Luftdruck Luftfeuchtigkeit
    00:00 +27°C° 0 mm 4 m/S 720 mmHg 52%
    01:00 +27°C° 0 mm 4 m/S 720 mmHg 52%
    02:00 +27°C° 0 mm 4 m/S 720 mmHg 52%
    03:00 +26°C° 0 mm 4 m/S 720 mmHg 54%
    04:00 +26°C° 0 mm 4 m/S 720 mmHg 56%
    05:00 +25°C° 0 mm 4 m/S 720 mmHg 58%
    06:00 +27°C° 0 mm 3 m/S 720 mmHg 53%
    07:00 +29°C° 0 mm 3 m/S 721 mmHg 47%
    08:00 +30°C° 0 mm 3 m/S 722 mmHg 41%
    09:00 +33°C° 0 mm 3 m/S 721 mmHg 38%
    10:00 +35°C° 0 mm 3 m/S 721 mmHg 34%
    11:00 +36°C° 0 mm 2 m/S 721 mmHg 30%
    12:00 +36°C° 0 mm 3 m/S 721 mmHg 31%
    13:00 +36°C° 0 mm 3 m/S 720 mmHg 33%
    14:00 +36°C° 0 mm 3 m/S 719 mmHg 34%
    15:00 +35°C° 0 mm 4 m/S 719 mmHg 34%
    16:00 +35°C° 0 mm 4 m/S 719 mmHg 34%
    17:00 +35°C° 0 mm 4 m/S 718 mmHg 35%
    18:00 +33°C° 0.2 mm 4 m/S 719 mmHg 39%
    19:00 +32°C° 0.2 mm 4 m/S 719 mmHg 44%
    20:00 +29°C° 0.2 mm 3 m/S 720 mmHg 48%
    21:00 +28°C° 0.1 mm 3 m/S 720 mmHg 51%
    22:00 +27°C° 0.1 mm 2 m/S 720 mmHg 55%
    23:00 +26°C° 0.1 mm 2 m/S 721 mmHg 58%

    17 November, Sonntag

    Zeit Temperatur Niederschläge Wind Luftdruck Luftfeuchtigkeit
    00:00 +25°C° 0.4 mm 2 m/S 721 mmHg 62%
    01:00 +24°C° 0.4 mm 1 m/S 720 mmHg 66%
    02:00 +23°C° 0.4 mm 1 m/S 720 mmHg 69%
    03:00 +23°C° 0.1 mm 1 m/S 720 mmHg 69%
    04:00 +23°C° 0.1 mm 2 m/S 720 mmHg 68%
    05:00 +23°C° 0.1 mm 2 m/S 720 mmHg 67%
    06:00 +25°C° 0 mm 3 m/S 721 mmHg 59%
    07:00 +26°C° 0 mm 3 m/S 721 mmHg 51%
    08:00 +28°C° 0 mm 4 m/S 722 mmHg 43%
    09:00 +30°C° 0 mm 5 m/S 722 mmHg 39%
    10:00 +32°C° 0 mm 6 m/S 722 mmHg 35%
    11:00 +34°C° 0 mm 6 m/S 722 mmHg 31%
    12:00 +35°C° 0 mm 7 m/S 721 mmHg 30%
    13:00 +35°C° 0 mm 7 m/S 721 mmHg 28%
    14:00 +36°C° 0 mm 7 m/S 720 mmHg 26%
    15:00 +36°C° 0 mm 7 m/S 720 mmHg 26%
    16:00 +35°C° 0 mm 7 m/S 719 mmHg 27%
    17:00 +35°C° 0 mm 7 m/S 718 mmHg 28%
    18:00 +33°C° 0 mm 7 m/S 719 mmHg 31%
    19:00 +30°C° 0 mm 6 m/S 719 mmHg 35%
    20:00 +29°C° 0 mm 5 m/S 719 mmHg 38%
    21:00 +28°C° 0 mm 4 m/S 719 mmHg 40%
    22:00 +27°C° 0 mm 4 m/S 720 mmHg 43%
    23:00 +26°C° 0 mm 3 m/S 720 mmHg 45%

    18 November, Montag

    Zeit Temperatur Niederschläge Wind Luftdruck Luftfeuchtigkeit
    00:00 +26°C° 0 mm 3 m/S 720 mmHg 46%
    01:00 +25°C° 0 mm 3 m/S 720 mmHg 47%
    02:00 +25°C° 0 mm 3 m/S 720 mmHg 48%
    03:00 +25°C° 0 mm 3 m/S 720 mmHg 49%
    04:00 +24°C° 0 mm 2 m/S 720 mmHg 50%
    05:00 +24°C° 0 mm 2 m/S 721 mmHg 51%
    06:00 +25°C° 0 mm 2 m/S 721 mmHg 50%
    07:00 +26°C° 0 mm 2 m/S 722 mmHg 49%
    08:00 +27°C° 0 mm 2 m/S 723 mmHg 48%
    09:00 +29°C° 0 mm 2 m/S 723 mmHg 44%
    10:00 +30°C° 0 mm 3 m/S 723 mmHg 40%
    11:00 +33°C° 0 mm 3 m/S 723 mmHg 36%
    12:00 +34°C° 0 mm 3 m/S 723 mmHg 34%
    13:00 +34°C° 0 mm 4 m/S 722 mmHg 32%
    14:00 +35°C° 0 mm 4 m/S 722 mmHg 30%
    15:00 +35°C° 0 mm 4 m/S 721 mmHg 30%
    16:00 +35°C° 0 mm 4 m/S 721 mmHg 30%
    17:00 +34°C° 0 mm 4 m/S 721 mmHg 30%
    18:00 +33°C° 0 mm 4 m/S 721 mmHg 32%
    19:00 +30°C° 0 mm 3 m/S 721 mmHg 34%
    20:00 +28°C° 0 mm 2 m/S 722 mmHg 35%
    21:00 +28°C° 0 mm 2 m/S 722 mmHg 38%
    22:00 +27°C° 0 mm 2 m/S 722 mmHg 40%
    23:00 +26°C° 0 mm 2 m/S 723 mmHg 43%

    19 November, Dienstag

    Zeit Temperatur Niederschläge Wind Luftdruck Luftfeuchtigkeit
    00:00 +25°C° 0 mm 1 m/S 723 mmHg 46%
    01:00 +24°C° 0 mm 1 m/S 722 mmHg 50%
    02:00 +23°C° 0 mm 1 m/S 722 mmHg 53%
    03:00 +23°C° 0 mm 1 m/S 722 mmHg 57%
    04:00 +22°C° 0 mm 1 m/S 722 mmHg 61%
    05:00 +22°C° 0 mm 1 m/S 722 mmHg 64%
    06:00 +24°C° 0 mm 1 m/S 723 mmHg 60%
    07:00 +25°C° 0 mm 2 m/S 723 mmHg 55%
    08:00 +27°C° 0 mm 2 m/S 724 mmHg 51%
    09:00 +29°C° 0 mm 3 m/S 723 mmHg 45%
    10:00 +30°C° 0 mm 4 m/S 723 mmHg 38%
    11:00 +33°C° 0 mm 5 m/S 723 mmHg 32%
    12:00 +34°C° 0 mm 5 m/S 722 mmHg 30%
    13:00 +35°C° 0 mm 5 m/S 722 mmHg 27%
    14:00 +36°C° 0 mm 6 m/S 721 mmHg 24%
    15:00 +36°C° 0 mm 6 m/S 720 mmHg 25%
    16:00 +35°C° 0 mm 6 m/S 720 mmHg 26%
    17:00 +35°C° 0 mm 5 m/S 719 mmHg 27%
    18:00 +33°C° 0 mm 5 m/S 719 mmHg 30%
    19:00 +30°C° 0 mm 4 m/S 720 mmHg 33%
    20:00 +29°C° 0 mm 3 m/S 720 mmHg 36%
    21:00 +28°C° 0 mm 2 m/S 720 mmHg 36%
    22:00 +27°C° 0 mm 2 m/S 720 mmHg 37%
    23:00 +27°C° 0 mm 2 m/S 721 mmHg 38%
    Mehr zeigen